Flag for US Virgin Islands Weather past 2 weeks in Cruz Bay, US Virgin Islands

Now
82 °F

Overcast.


Feels Like: 89 °F
Forecast: 82 / 86 °F
Wind: 9 mph from Southeast

Location: Cyril E. King International Airport

Current Time: Jul 25, 2014 at 3:30:29 AM

Latest Report: Jul 25, 2014 at 2:53 AM


Visibility: 10 mi

Pressure: 30.02 "Hg

Humidity: 79%

Dew point: 75 °F

Location of Cruz BayLocation

Historic Weather in Cruz Bay — Graph

°F

Cruz Bay temperature yesterday

Maximum temperature yesterday: 92 °F (at 11:53 AM)
Minimum temperature yesterday: 82 °F (at 1:53 AM)
Average temperature yesterday: 86 °F

Past Weeks' High & Low Weather Summary

 TemperatureHumidityPressure
High92 °F (Jul 23, 11:53 AM)100% (Jul 11, 1:08 AM)30.13 "Hg (Jul 11, 1:08 AM)
Low78 °F (Jul 10, 5:53 AM)52% (Jul 23, 10:53 AM)30.00 "Hg (Jul 24, 3:31 PM)
Average84 °F75%30.06 "Hg
* Reported Jul 10 1:53 AM — Jul 25 1:53 AM, Cruz Bay, Weather by CustomWeather, © 2014

Note: Actual official high and low records may vary slightly from our data, if they occured in-between our weather recording intervals... More about our weather records

Advertising

Cruz Bay weather history for previous 24 hours

 ConditionsComfort  
Time TempWeatherWind HumidityBarometerVisibility
1:53 AM
Jul 25
82 °FOvercast.13 mph77%30.04 "Hg10 mi
12:53 AM82 °FOvercast.14 mph79%30.05 "Hg10 mi
11:53 PM
Jul 24
82 °FOvercast.14 mph79%30.07 "Hg10 mi
10:53 PM82 °FOvercast.15 mph79%30.09 "Hg10 mi
9:53 PM83 °FOvercast.8 mph77%30.08 "Hg10 mi
8:53 PM83 °FOvercast.12 mph74%30.06 "Hg10 mi
7:53 PM83 °FOvercast.16 mph74%30.05 "Hg10 mi
6:53 PM84 °FOvercast.17 mph72%30.03 "Hg10 mi
6:22 PM84 °FPartly sunny.14 mph70%30.02 "Hg10 mi
5:53 PM85 °FPassing clouds.13 mph70%30.02 "Hg10 mi
5:31 PM86 °FScattered clouds.17 mph66%30.01 "Hg10 mi
4:53 PM88 °FPartly sunny.18 mph63%30.01 "Hg10 mi
4:38 PM90 °FMore clouds than sun.18 mph59%30.01 "Hg10 mi
3:53 PM91 °FPartly sunny.17 mph56%30.00 "Hg10 mi
3:31 PM90 °FMostly cloudy.17 mph59%30.00 "Hg10 mi
3:20 PM90 °FBroken clouds.18 mph59%30.01 "Hg10 mi
2:53 PM92 °FPartly sunny.20 mph54%30.01 "Hg10 mi
1:53 PM91 °FBroken clouds.21 mph54%30.03 "Hg10 mi
12:53 PM90 °FBroken clouds.22 mph57%30.05 "Hg10 mi
11:53 AM92 °FSunny.20 mph56%30.05 "Hg10 mi
10:53 AM90 °FPassing clouds.17 mph57%30.06 "Hg10 mi
9:53 AM89 °FSunny.18 mph57%30.06 "Hg10 mi
8:53 AM87 °FBroken clouds.17 mph67%30.05 "Hg10 mi
7:53 AM85 °FPartly sunny.13 mph70%30.05 "Hg10 mi
6:53 AM83 °FSunny.17 mph74%30.04 "Hg10 mi
5:53 AM82 °FPartly cloudy.15 mph79%30.02 "Hg10 mi
5:35 AM82 °FMostly cloudy.12 mph79%30.02 "Hg10 mi
4:53 AM82 °FMostly cloudy.5 mph82%30.01 "Hg10 mi
4:19 AM82 °FPassing clouds.9 mph79%30.01 "Hg10 mi
3:53 AM82 °FPassing clouds.13 mph79%30.01 "Hg10 mi
3:39 AM82 °FOvercast.10 mph79%30.01 "Hg10 mi
Weather by CustomWeather, © 2014

See weather overviewHow to use our weather pages